Tracking 19795 objects as of 18-Jul-2019
HD Live streaming from Space Station
objects crossing your sky now

HOT BIRD 1

Track HOT BIRD 1 now!
HOT BIRD 1 is classified as:


NORAD ID: 23537
Int'l Code: 1995-016B
Perigee: 36,042.5 km
Apogee: 36,083.4 km
Inclination: 10.0 °
Period: 1,449.9 minutes
Semi major axis: 42433 km
RCS: 7.9621 m2 (large)
Launch date: March 28, 1995
Source: European Telecommunications Satellite Organization (EUTE)
Launch site: FRENCH GUIANA (FRGUI)

Cable programming; direct-to-home broadcasting; 16 channels, Western Europe
aabbcc
Your satellite tracking list
Your tracking list is empty




NASA's NSSDC Master Catalog

Two Line Element Set (TLE):
1 23537U 95016B   19198.84495969 -.00000333 +00000-0 +00000-0 0  9993
2 23537 009.9960 039.3486 0004813 018.6530 324.5583 00.99319154088611
Source of the keplerian elements: AFSPC